THORAD DELTA 1 DEB, 8161

Orbit data source: Space-Track

THORAD DELTA 1 DEB, 8161 is space debris in LEO originally from a launch on Fri, 15 Nov 1974 UTC launched from the Air Force Western Test Range (AFWTR). Debris objects in space refer to the collection of defunct objects orbiting the Earth. Examples of debris include non-operational satellites, rocket bodies, and fragments generated from explosions, collisions, or faulty payload assembly.

Loading next visibility...
Identifier
8161, 1974-089AB
Orbit
LEO
Country
Flag of USUS
Related business
Manufacturer
Unknown
Mission
Spacecraft
Bus & Motor
Unknown
Mass
Unknown
Launch date (UTC)
1974-11-15 (51 years ago)
Launch vehicle
Unknown
Launch site
Air Force Western Test Range (AFWTR)
Object type
Payload
Rocket body
Debris
Shape & HBR
Unknown shape, 0.1 m
Radar Cross Section
Small (<0.1 m²)

Expand to show TLE details & history
Last TLE update: 6 days ago

TLE from 6 days ago
0 THORAD DELTA 1 DEB
1 08161U 74089AB  26120.70000764  .00000698  00000-0  74990-2 0  9993
2 08161 101.2103 161.5476 0370670 236.6785 252.8487 11.99519732581991
Epoch: 2026-04-30T16:48Z
TLE epoch observation values (Epoch: 2026-04-30T16:48:00.660Z)
Latitude
53.05955°
Longitude
-113.88937°
Altitude
1,789.527 km
Speed
6.949 km/s
True Right ascension
23h 47m 01s
True Declination
52° 54' 54"
Sunlit
Object was in daylight at epoch
Visualization orbit readout
Latitude
Unknown
Longitude
Unknown
Altitude
Unknown
Speed
Unknown
Apparent Right ascension
Unknown
Apparent Declination
Unknown
Sunlit
N/A
Visualization observer readout
Local Sidereal Time
16:58:44
Azimuth
Unknown
Elevation
Unknown
Doppler factor
Unknown
Orbital elements
Apogee altitude
1,979.303 km
Perigee altitude
1,381.877 km
Semi-major axis
8,058.727 km
Eccentricity
0.03707
Inclination
101.2103°
RAAN
161.5476°
Arg. of periapsis
236.6785°
True anomaly
248.84801°
Mean anomaly
252.8487°
Eccentric anomaly
250.84253°
Mean motion
3.00015 °/min
Orbital period
119.99 mins
BSTAR
0.007499
Loading maneuver chart data...
Computing Atmospheric mass density...
Loading historical data...
Loading historical data...
Loading historical data...
Loading historical data...
Loading historical data...
Loading historical data...
Loading historical data...

Documentation

Showing up to 5 results
|